Location: Allentsteig
(48.6833°N, 15.3167°E)
Time: 01:56:06
(UTC+00:00)

ATLAS 2AS CENTAUR R/B - Pass Details

Date: 18 September 2020
Orbit: 939 x 1273 km, 63.7° (Epoch: 27 October)

Event Time Altitude Azimuth Distance (km) Brightness Sun altitude
Rises 21:02:58 0° 228° (SW) 4,205 5.7 -34.6°
Enters shadow 21:04:49 - 230° (SW) 3,579 5.4 -34.7°
Exits shadow 21:11:57 55° 255° (WSW) 1,495 3.4 -35.4°
Maximum altitude 21:13:43 71° 315° (NW) 1,335 3.1 -35.5°
Drops below altitude 10° 21:21:34 10° 40° (NE) 3,210 5.4 -36.2°
Sets 21:24:20 0° 43° (NE) 4,146 6.0 -36.4°
